VKG648 EDDH-EKCH

Flight info

Callsign VKG648
Flight time 0h 36m
Altitude 23000
Route LUGEG3G LUGEG P605 GESKA/N0392F220 Z711 MONAK
Aircraft A321/M-SDE3FGHIRWY/LB1

Departure

Time 2026-04-24 21:37
Airport Hamburg Helmut Schmidt Airport (EDDH)

Arrival

Time 2026-04-24 22:14
Airport Copenhagen Kastrup Airport (EKCH)
Time Latitude Longitude Altitude Speed Heading
2026-04-24 21:13 53.63449 10.00305 51 ft 0 kts 88°
2026-04-24 21:29 53.63449 10.00302 51 ft 2 kts 88°
2026-04-24 21:30 53.63448 10.00261 51 ft 2 kts 88°
2026-04-24 21:30 53.63450 10.00227 51 ft 4 kts 139°
2026-04-24 21:30 53.63472 10.00217 51 ft 3 kts 176°
2026-04-24 21:30 53.63457 10.00219 48 ft 4 kts 176°
2026-04-24 21:31 53.63445 10.00220 51 ft 0 kts 176°
2026-04-24 21:34 53.63425 10.00222 51 ft 8 kts 176°
2026-04-24 21:34 53.63338 10.00233 48 ft 16 kts 176°
2026-04-24 21:34 53.63229 10.00246 51 ft 15 kts 176°
2026-04-24 21:34 53.63128 10.00258 51 ft 14 kts 176°
2026-04-24 21:35 53.63039 10.00234 51 ft 13 kts 210°
2026-04-24 21:35 53.62967 10.00156 47 ft 12 kts 214°
2026-04-24 21:35 53.62900 10.00080 49 ft 11 kts 213°
2026-04-24 21:35 53.62846 9.99993 50 ft 10 kts 241°
2026-04-24 21:36 53.62819 9.99879 47 ft 11 kts 247°
2026-04-24 21:36 53.62829 9.99775 49 ft 8 kts 323°
2026-04-24 21:36 53.62849 9.99759 49 ft 0 kts 333°
2026-04-24 21:36 53.62857 9.99752 47 ft 7 kts 333°
2026-04-24 21:37 53.63097 9.99543 50 ft 73 kts 333°
2026-04-24 21:37 53.63726 9.99000 49 ft 128 kts 333°
2026-04-24 21:37 53.64639 9.98207 122 ft 161 kts 335°
2026-04-24 21:37 53.65625 9.97364 754 ft 156 kts 329°
2026-04-24 21:38 53.66596 9.96567 1436 ft 154 kts 330°
2026-04-24 21:38 53.67551 9.95756 2042 ft 154 kts 330°
2026-04-24 21:38 53.68517 9.94924 2500 ft 161 kts 332°
2026-04-24 21:38 53.69667 9.94468 2719 ft 183 kts 355°
2026-04-24 21:39 53.70992 9.94503 3057 ft 193 kts 358°
2026-04-24 21:39 53.72345 9.94693 3541 ft 200 kts
2026-04-24 21:39 53.73595 9.95842 3939 ft 214 kts 36°
2026-04-24 21:39 53.74472 9.97982 4298 ft 232 kts 59°
2026-04-24 21:40 53.75184 10.00500 4701 ft 246 kts 58°
2026-04-24 21:40 53.75971 10.03193 5117 ft 263 kts 58°
2026-04-24 21:40 53.76806 10.06024 5708 ft 273 kts 58°
2026-04-24 21:40 53.77364 10.07951 6191 ft 277 kts 59°
2026-04-24 21:41 53.78203 10.10918 6909 ft 281 kts 60°
2026-04-24 21:41 53.79053 10.13914 7624 ft 284 kts 59°
2026-04-24 21:41 53.79934 10.16919 8366 ft 286 kts 58°
2026-04-24 21:41 53.80838 10.19937 9075 ft 290 kts 58°
2026-04-24 21:42 53.81738 10.23022 9764 ft 294 kts 58°
2026-04-24 21:42 53.82623 10.26164 10416 ft 299 kts 58°
2026-04-24 21:42 53.83547 10.29426 10751 ft 315 kts 58°
2026-04-24 21:42 53.84524 10.32837 11041 ft 331 kts 59°
2026-04-24 21:43 53.85559 10.36471 11186 ft 353 kts 59°
2026-04-24 21:43 53.86775 10.40155 11552 ft 359 kts 47°
2026-04-24 21:43 53.88380 10.43397 12125 ft 361 kts 44°
2026-04-24 21:43 53.90020 10.46650 12759 ft 365 kts 44°
2026-04-24 21:44 53.91680 10.49938 13410 ft 369 kts 44°
2026-04-24 21:44 53.93356 10.53260 14037 ft 373 kts 45°
2026-04-24 21:44 53.95049 10.56617 14613 ft 376 kts 45°
2026-04-24 21:44 53.96755 10.60006 15150 ft 380 kts 45°
2026-04-24 21:45 53.98476 10.63438 15679 ft 384 kts 45°
2026-04-24 21:45 54.00210 10.66915 16226 ft 387 kts 45°
2026-04-24 21:45 54.01952 10.70427 16755 ft 391 kts 45°
2026-04-24 21:45 54.03715 10.73983 17289 ft 395 kts 45°
2026-04-24 21:46 54.05500 10.77579 17811 ft 399 kts 45°
2026-04-24 21:46 54.07302 10.81197 18317 ft 403 kts 45°
2026-04-24 21:46 54.09116 10.84844 18757 ft 406 kts 45°
2026-04-24 21:46 54.10948 10.88529 19187 ft 409 kts 45°
2026-04-24 21:47 54.12793 10.92245 19627 ft 412 kts 45°
2026-04-24 21:47 54.14649 10.95992 20052 ft 415 kts 46°
2026-04-24 21:47 54.16518 10.99778 20475 ft 419 kts 46°
2026-04-24 21:47 54.18398 11.03598 20902 ft 422 kts 46°
2026-04-24 21:48 54.20293 11.07450 21326 ft 425 kts 46°
2026-04-24 21:48 54.22202 11.11333 21757 ft 428 kts 46°
2026-04-24 21:48 54.24123 11.15246 22177 ft 431 kts 46°
2026-04-24 21:48 54.26048 11.19181 22683 ft 432 kts 47°
2026-04-24 21:49 54.27979 11.23131 23016 ft 434 kts 46°
2026-04-24 21:49 54.29890 11.27040 23069 ft 434 kts 47°
2026-04-24 21:49 54.31827 11.31006 23064 ft 434 kts 47°
2026-04-24 21:49 54.33761 11.34975 23057 ft 434 kts 47°
2026-04-24 21:50 54.35694 11.38951 23051 ft 434 kts 47°
2026-04-24 21:50 54.37622 11.42935 23050 ft 434 kts 47°
2026-04-24 21:50 54.39549 11.46923 23052 ft 434 kts 47°
2026-04-24 21:50 54.41473 11.50903 23046 ft 434 kts 47°
2026-04-24 21:51 54.43405 11.54903 23046 ft 434 kts 47°
2026-04-24 21:51 54.45333 11.58896 23068 ft 434 kts 46°
2026-04-24 21:51 54.47260 11.62894 23067 ft 434 kts 46°
2026-04-24 21:51 54.49184 11.66891 23061 ft 434 kts 46°
2026-04-24 21:52 54.51103 11.70889 23051 ft 433 kts 47°
2026-04-24 21:52 54.53018 11.74891 23047 ft 433 kts 47°
2026-04-24 21:52 54.54930 11.78896 23041 ft 432 kts 47°
2026-04-24 21:52 54.56812 11.82852 22805 ft 422 kts 47°
2026-04-24 21:53 54.58645 11.86725 22536 ft 413 kts 47°
2026-04-24 21:53 54.60466 11.90525 22264 ft 408 kts 44°
2026-04-24 21:53 54.62530 11.93810 22005 ft 398 kts 30°
2026-04-24 21:53 54.64811 11.96483 21745 ft 395 kts 29°
2026-04-24 21:54 54.67133 11.99193 21520 ft 415 kts 29°
2026-04-24 21:54 54.69576 12.02044 21145 ft 430 kts 29°
2026-04-24 21:54 54.72053 12.04942 20512 ft 427 kts 29°
2026-04-24 21:54 54.74497 12.07810 19903 ft 422 kts 29°
2026-04-24 21:55 54.76827 12.10545 19334 ft 417 kts 29°
2026-04-24 21:55 54.79302 12.13445 18731 ft 413 kts 28°
2026-04-24 21:55 54.81667 12.16218 18162 ft 408 kts 28°
2026-04-24 21:55 54.83977 12.18927 17593 ft 403 kts 28°
2026-04-24 21:56 54.86281 12.21632 17066 ft 397 kts 28°
2026-04-24 21:56 54.88552 12.24292 16580 ft 390 kts 27°
2026-04-24 21:56 54.90887 12.26474 16506 ft 380 kts 20°
2026-04-24 21:56 54.93258 12.28522 16412 ft 381 kts 21°
2026-04-24 21:57 54.95633 12.30578 16298 ft 383 kts 21°
2026-04-24 21:57 54.98054 12.32671 15747 ft 390 kts 21°
2026-04-24 21:57 55.00475 12.34775 15181 ft 387 kts 21°
2026-04-24 21:57 55.02878 12.36871 14637 ft 384 kts 21°
2026-04-24 21:58 55.05254 12.38946 14108 ft 381 kts 21°
2026-04-24 21:58 55.07617 12.41015 13563 ft 379 kts 21°
2026-04-24 21:58 55.09962 12.43070 13024 ft 376 kts 21°
2026-04-24 21:58 55.12288 12.45106 12525 ft 373 kts 21°
2026-04-24 21:59 55.14597 12.47127 12023 ft 370 kts 21°
2026-04-24 21:59 55.16890 12.49137 11495 ft 367 kts 21°
2026-04-24 21:59 55.19164 12.51119 10864 ft 366 kts 22°
2026-04-24 21:59 55.21425 12.53093 10513 ft 358 kts 22°
2026-04-24 22:00 55.23611 12.55023 10271 ft 346 kts 22°
2026-04-24 22:00 55.25731 12.56907 10016 ft 335 kts 22°
2026-04-24 22:00 55.27733 12.58689 9741 ft 308 kts 22°
2026-04-24 22:00 55.29561 12.60325 9610 ft 286 kts 21°
2026-04-24 22:01 55.31299 12.61868 9481 ft 274 kts 21°
2026-04-24 22:01 55.32984 12.63358 9345 ft 268 kts 21°
2026-04-24 22:01 55.34615 12.64800 9207 ft 258 kts 21°
2026-04-24 22:01 55.36199 12.66200 9074 ft 250 kts 20°
2026-04-24 22:02 55.37737 12.67561 8940 ft 246 kts 20°
2026-04-24 22:02 55.39264 12.68910 8815 ft 245 kts 20°
2026-04-24 22:02 55.40779 12.70252 8651 ft 242 kts 20°
2026-04-24 22:02 55.42292 12.71596 8545 ft 244 kts 20°
2026-04-24 22:03 55.43818 12.72927 8306 ft 243 kts 19°
2026-04-24 22:03 55.45305 12.74178 8235 ft 232 kts 19°
2026-04-24 22:03 55.46749 12.75404 8187 ft 229 kts 19°
2026-04-24 22:03 55.48171 12.76601 7882 ft 229 kts 19°
2026-04-24 22:04 55.49569 12.77778 7699 ft 215 kts 19°
2026-04-24 22:04 55.50901 12.78908 7442 ft 211 kts 19°
2026-04-24 22:04 55.52199 12.80014 7159 ft 205 kts 19°
2026-04-24 22:04 55.53477 12.81082 6910 ft 202 kts 18°
2026-04-24 22:05 55.54748 12.82125 6661 ft 201 kts 17°
2026-04-24 22:05 55.56031 12.83131 6165 ft 202 kts 17°
2026-04-24 22:05 55.57295 12.84156 5799 ft 199 kts 19°
2026-04-24 22:05 55.58534 12.85218 5580 ft 196 kts 19°
2026-04-24 22:06 55.59749 12.86286 5358 ft 194 kts 20°
2026-04-24 22:06 55.60947 12.87326 5104 ft 190 kts 19°
2026-04-24 22:06 55.62105 12.88497 5005 ft 195 kts 29°
2026-04-24 22:06 55.63153 12.90046 4750 ft 196 kts 36°
2026-04-24 22:07 55.64187 12.91610 4661 ft 195 kts 34°
2026-04-24 22:07 55.65252 12.93107 4537 ft 196 kts 33°
2026-04-24 22:07 55.66325 12.94590 4410 ft 195 kts 33°
2026-04-24 22:07 55.67398 12.96072 4220 ft 195 kts 30°
2026-04-24 22:08 55.68615 12.96972 4009 ft 187 kts
2026-04-24 22:08 55.69898 12.96924 3877 ft 184 kts 346°
2026-04-24 22:08 55.71142 12.96419 3889 ft 184 kts 344°
2026-04-24 22:08 55.72337 12.95638 3785 ft 183 kts 325°
2026-04-24 22:09 55.73260 12.94115 3645 ft 181 kts 311°
2026-04-24 22:09 55.74043 12.92368 3443 ft 181 kts 299°
2026-04-24 22:09 55.74316 12.90216 3316 ft 182 kts 270°
2026-04-24 22:09 55.74026 12.88063 3217 ft 176 kts 249°
2026-04-24 22:10 55.73559 12.86106 2974 ft 172 kts 253°
2026-04-24 22:10 55.73098 12.84157 2712 ft 170 kts 246°
2026-04-24 22:10 55.72511 12.82342 2511 ft 170 kts 240°
2026-04-24 22:10 55.71743 12.80785 2289 ft 169 kts 226°
2026-04-24 22:11 55.70884 12.79459 2140 ft 161 kts 223°
2026-04-24 22:11 55.70034 12.78232 1898 ft 152 kts 223°
2026-04-24 22:11 55.69230 12.77082 1674 ft 146 kts 224°
2026-04-24 22:11 55.68465 12.75922 1486 ft 145 kts 225°
2026-04-24 22:12 55.67690 12.74786 1318 ft 144 kts 224°
2026-04-24 22:12 55.66932 12.73643 1109 ft 142 kts 226°
2026-04-24 22:12 55.66196 12.72483 946 ft 141 kts 226°
2026-04-24 22:12 55.65467 12.71334 775 ft 140 kts 225°
2026-04-24 22:13 55.64745 12.70201 610 ft 137 kts 227°
2026-04-24 22:13 55.64036 12.69077 428 ft 137 kts 226°
2026-04-24 22:13 55.63324 12.67959 279 ft 135 kts 224°
2026-04-24 22:13 55.62611 12.66867 90 ft 135 kts 225°
2026-04-24 22:14 55.61926 12.65815 22 ft 120 kts 224°
2026-04-24 22:14 55.61427 12.65034 18 ft 70 kts 221°
2026-04-24 22:14 55.61166 12.64628 17 ft 42 kts 221°
2026-04-24 22:14 55.60953 12.64295 18 ft 39 kts 221°
2026-04-24 22:15 55.60783 12.64039 21 ft 27 kts 222°
2026-04-24 22:15 55.60689 12.63871 19 ft 11 kts 244°
2026-04-24 22:15 55.60705 12.63746 18 ft 12 kts 307°
2026-04-24 22:15 55.60758 12.63641 18 ft 11 kts 313°
2026-04-24 22:16 55.60825 12.63595 17 ft 11 kts 15°
2026-04-24 22:16 55.60896 12.63678 19 ft 13 kts 36°
2026-04-24 22:16 55.60976 12.63766 18 ft 14 kts 31°
2026-04-24 22:16 55.61059 12.63860 18 ft 14 kts 33°
2026-04-24 22:17 55.61144 12.63959 17 ft 15 kts 33°
2026-04-24 22:17 55.61231 12.64060 17 ft 15 kts 32°
2026-04-24 22:17 55.61322 12.64161 18 ft 15 kts 33°
2026-04-24 22:17 55.61406 12.64260 17 ft 14 kts 34°
2026-04-24 22:18 55.61478 12.64345 18 ft 11 kts 33°
2026-04-24 22:18 55.61537 12.64414 17 ft 9 kts 32°
2026-04-24 22:18 55.61585 12.64466 17 ft 7 kts 31°
2026-04-24 22:18 55.61631 12.64516 17 ft 9 kts 32°
2026-04-24 22:19 55.61683 12.64569 17 ft 7 kts 17°
2026-04-24 22:19 55.61723 12.64566 17 ft 5 kts 350°
2026-04-24 22:19 55.61771 12.64550 17 ft 9 kts 349°
2026-04-24 22:19 55.61791 12.64544 17 ft 0 kts 349°
2026-04-24 22:20 55.61799 12.64541 17 ft 4 kts 347°
2026-04-24 22:20 55.61849 12.64524 17 ft 9 kts 349°
2026-04-24 22:20 55.61912 12.64503 17 ft 10 kts 348°
2026-04-24 22:20 55.61982 12.64479 17 ft 9 kts 349°
2026-04-24 22:21 55.62036 12.64461 17 ft 8 kts 350°
2026-04-24 22:21 55.62104 12.64441 19 ft 12 kts 350°
2026-04-24 22:21 55.62192 12.64411 15 ft 14 kts 348°
2026-04-24 22:21 55.62269 12.64313 17 ft 15 kts 303°
2026-04-24 22:22 55.62329 12.64149 14 ft 16 kts 303°
2026-04-24 22:22 55.62386 12.63994 15 ft 14 kts 302°
2026-04-24 22:22 55.62435 12.63860 16 ft 12 kts 303°
2026-04-24 22:22 55.62472 12.63756 17 ft 7 kts 303°
2026-04-24 22:23 55.62503 12.63674 19 ft 10 kts 304°
2026-04-24 22:23 55.62550 12.63553 16 ft 13 kts 309°
2026-04-24 22:23 55.62626 12.63498 16 ft 11 kts 352°
2026-04-24 22:23 55.62682 12.63441 17 ft 10 kts 312°
2026-04-24 22:24 55.62724 12.63331 17 ft 11 kts 306°
2026-04-24 22:24 55.62784 12.63336 17 ft 8 kts 33°
2026-04-24 22:24 55.62829 12.63391 17 ft 9 kts 34°
2026-04-24 22:24 55.62863 12.63468 18 ft 6 kts 48°
2026-04-24 22:25 55.62883 12.63500 17 ft 2 kts 41°
2026-04-24 22:25 55.62893 12.63515 19 ft 1 kts 42°
2026-04-24 22:25 55.62898 12.63523 17 ft 1 kts 41°
2026-04-24 22:25 55.62898 12.63524 17 ft 0 kts 41°